Retour au catalogue

RASSVET-3 10

ActifSciencePO
NORAD 68369·PAYLOAD·🇷🇺 Russia

Lancé Mar 23, 2026 depuis Plesetsk Cosmodrome

Loading…

Prochains Passages (prochaines 24 heures)

TLE

FraisSource: Space-Track

Époque: Sep 14, 2026, 20:33 UTC

1 68369U 26061K   26257.85693579  .00003143  00000-0  15136-3 0  9991
2 68369  82.2824 274.9928 0002973 131.7158 228.4330 15.18421011 27531

Suivez RASSVET-3 10 en temps réel avec AllMySat

Download on the App Store